Flag for Greece Weather past 2 weeks in Piraeus, Greece

Now
84 °F

Sunny.


Feels Like: 81 °F
Forecast: 75 / 88 °F
Wind: 8 mph from North

Location: Elefsis Airport

Current Time: Aug 28, 2015 at 9:17:17 PM

Latest Report: Aug 28, 2015 at 8:20 PM


Visibility: 10 mi

Pressure: 30.04 "Hg

Humidity: 15%

Dew point: 32 °F

Location of PiraeusLocation

Historic Weather in Piraeus — Graph

°F

Piraeus temperature yesterday

Maximum temperature yesterday: 88 °F (at 1:20 PM)
Minimum temperature yesterday: 73 °F (at 12:50 AM)
Average temperature yesterday: 81 °F

Past Weeks' High & Low Weather Summary

 TemperatureHumidityPressure
High97 °F (Aug 17, 1:50 PM)74% (Aug 21, 3:20 PM)30.07 "Hg (Aug 21, 3:20 PM)
Low72 °F (Aug 24, 5:50 AM)13% (Aug 28, 7:20 PM)29.74 "Hg (Aug 15, 4:50 PM)
Average83 °F41%29.88 "Hg
* Reported Aug 13 7:20 PM — Aug 28 7:50 PM, Piraeus, Weather by CustomWeather, © 2015

Note: Actual official high and low records may vary slightly from our data, if they occured in-between our weather recording intervals... More about our weather records

Advertising

Piraeus weather history for previous 24 hours

 ConditionsComfort  
Time TempWeatherWind HumidityBarometerVisibility
7:50 PM
Fri, Aug 28
84 °FSunny.10 mph15%30.04 "Hg10 mi
7:20 PM88 °FSunny.9 mph13%30.04 "Hg10 mi
6:50 PM88 °FSunny.10 mph15%30.04 "Hg10 mi
6:20 PM90 °FSunny.12 mph15%30.04 "Hg10 mi
5:50 PM91 °FSunny.10 mph14%30.01 "Hg10 mi
5:20 PM91 °FSunny.12 mph15%30.01 "Hg10 mi
4:50 PM91 °FSunny.10 mph15%30.01 "Hg10 mi
4:20 PM91 °FSunny.8 mph16%30.04 "Hg10 mi
3:50 PM91 °FSunny.12 mph16%30.04 "Hg10 mi
3:20 PM91 °FSunny.13 mph15%30.04 "Hg10 mi
2:50 PM91 °FSunny.13 mph17%30.04 "Hg10 mi
2:20 PM91 °FSunny.14 mph17%30.04 "Hg10 mi
1:50 PM90 °FSunny.12 mph20%30.04 "Hg10 mi
1:20 PM90 °FSunny.12 mph20%30.04 "Hg10 mi
12:50 PM90 °FSunny.13 mph20%30.04 "Hg10 mi
12:20 PM88 °FSunny.12 mph22%30.07 "Hg10 mi
11:50 AM88 °FSunny.12 mph24%30.07 "Hg10 mi
11:20 AM86 °FSunny.13 mph27%30.07 "Hg10 mi
10:50 AM86 °FSunny.12 mph27%30.07 "Hg10 mi
10:20 AM84 °FSunny.12 mph33%30.04 "Hg10 mi
9:50 AM82 °FSunny.10 mph37%30.07 "Hg10 mi
9:20 AM81 °FSunny.12 mph42%30.07 "Hg10 mi
8:50 AM79 °FSunny.12 mph45%30.07 "Hg10 mi
8:20 AM77 °FSunny.15 mph47%30.04 "Hg10 mi
7:50 AM77 °FClear.12 mph47%30.04 "Hg10 mi
6:50 AM75 °FClear.12 mph47%30.04 "Hg10 mi
5:50 AM75 °FClear.14 mph44%30.01 "Hg10 mi
5:20 AM75 °FClear.14 mph44%30.01 "Hg10 mi
4:50 AM75 °FClear.14 mph44%30.01 "Hg10 mi
4:20 AM73 °FClear.12 mph47%30.01 "Hg10 mi
3:50 AM73 °FClear.12 mph47%30.01 "Hg10 mi
3:20 AM75 °FClear.9 mph44%30.04 "Hg10 mi
2:50 AM75 °FClear.14 mph47%30.04 "Hg10 mi
2:20 AM75 °FClear.16 mph47%30.04 "Hg10 mi
1:50 AM75 °FClear.16 mph47%30.04 "Hg10 mi
12:50 AM77 °FClear.14 mph42%30.04 "Hg10 mi
12:20 AM77 °FClear.14 mph39%30.04 "Hg10 mi
11:50 PM
Thu, Aug 27
75 °FClear.12 mph39%30.04 "Hg10 mi
11:20 PM75 °FClear.7 mph34%30.04 "Hg10 mi
10:50 PM75 °FClear.7 mph34%30.04 "Hg10 mi
10:20 PM75 °FClear.9 mph36%30.04 "Hg10 mi
9:50 PM79 °FClear.12 mph28%30.01 "Hg10 mi
9:20 PM79 °FClear.14 mph26%30.01 "Hg10 mi
Weather by CustomWeather, © 2015

See weather overviewHow to use our weather pages